Flag Weather past 2 weeks in Beirut, Lebanon

Now
64 °F

Light rain. Partly sunny.


Feels Like: 64 °F
Forecast: 57 / 65 °F
Wind: 3 mph from East

Location: Beirut Airport

Current Time: Nov 23, 2014 at 2:30:49 PM

Latest Report: Nov 23, 2014 at 1:00 PM


Visibility: 5 mi

Pressure: 29.98 "Hg

Humidity: 64%

Dew point: 52 °F

Location of BeirutLocation

Historic Weather in Beirut — Graph

°F

Beirut temperature yesterday

Maximum temperature yesterday: 68 °F (at 1:00 AM)
Minimum temperature yesterday: 59 °F (at 8:00 PM)
Average temperature yesterday: 63 °F

Past Weeks' High & Low Weather Summary

 TemperatureHumidityPressure
High79 °F (Nov 9, 3:00 PM)88% (Nov 15, 5:00 PM)30.24 "Hg (Nov 15, 5:00 PM)
Low57 °F (Nov 23, 6:00 AM)24% (Nov 9, 1:00 AM)29.86 "Hg (Nov 16, 6:00 AM)
Average68 °F57%30.03 "Hg
* Reported Nov 8 1:00 PM — Nov 23 1:00 PM, Beirut, Weather by CustomWeather, © 2014

Note: Actual official high and low records may vary slightly from our data, if they occured in-between our weather recording intervals... More about our weather records

Advertising

Beirut weather history for previous 24 hours

 ConditionsComfort  
Time TempWeatherWind HumidityBarometerVisibility
1:00 PM
Nov 23
64 °FLight rain. Partly sunny.3 mph64%29.98 "Hg5 mi
12:00 PM61 °FRain. Partly sunny.6 mph72%30.01 "Hg5 mi
11:00 AM59 °FRain. Partly sunny.10 mph82%30.04 "Hg5 mi
10:00 AM63 °FScattered clouds.2 mph64%30.04 "HgN/A
8:00 AM61 °FScattered clouds.3 mph68%30.04 "HgN/A
7:00 AM57 °FLight rain. Overcast.6 mph82%30.04 "Hg5 mi
6:00 AM57 °FLight rain. Partly cloudy.3 mph82%30.04 "Hg5 mi
5:00 AM59 °FPartly cloudy.6 mph72%30.01 "Hg5 mi
4:00 AM61 °FLight rain. Passing clouds.5 mph63%30.01 "Hg5 mi
3:00 AM59 °FPassing clouds.5 mph63%30.01 "HgN/A
2:00 AM59 °FPassing clouds.5 mph63%30.01 "HgN/A
1:00 AM59 °FPassing clouds.5 mph63%30.01 "HgN/A
12:00 AM59 °FPassing clouds.5 mph63%30.01 "HgN/A
11:00 PM
Nov 22
59 °FPassing clouds.7 mph68%30.01 "HgN/A
10:00 PM59 °FPassing clouds.3 mph68%30.01 "HgN/A
9:00 PM59 °FPassing clouds.6 mph72%30.01 "HgN/A
8:00 PM59 °FPassing clouds.6 mph72%30.01 "HgN/A
7:00 PM61 °FPassing clouds.13 mph63%30.01 "HgN/A
6:00 PM61 °FPassing clouds.7 mph72%29.98 "HgN/A
5:00 PM63 °FPassing clouds.3 mph68%29.98 "HgN/A
4:00 PM61 °FPartly sunny.5 mph72%29.98 "HgN/A
3:00 PM63 °FPartly sunny.6 mph68%29.95 "HgN/A
2:00 PM61 °FLight rain. Partly sunny.9 mph68%29.95 "HgN/A
Weather by CustomWeather, © 2014

See weather overviewHow to use our weather pages